EJA251 KSAT-KAUS

Flight info

Callsign EJA251
Flight time 0h 22m
Altitude 17000
Route BOWIE8 SAT V550 CWK BLEWE5
Aircraft CL60/M-SBDE1E2E3FGHIJ1J4J5J7M3RWXYZ/LB1V1D1

Departure

Time 2026-04-29 01:09
Airport San Antonio International Airport (KSAT)

Arrival

Time 2026-04-29 01:31
Airport Austin Bergstrom International Airport (KAUS)
Time Latitude Longitude Altitude Speed Heading
2026-04-29 00:39 29.53363 -98.47926 802 ft 0 kts 326°
2026-04-29 01:05 29.53368 -98.47929 802 ft 4 kts 335°
2026-04-29 01:05 29.53429 -98.47906 801 ft 10 kts 32°
2026-04-29 01:06 29.53494 -98.47857 800 ft 12 kts 40°
2026-04-29 01:06 29.53560 -98.47826 799 ft 12 kts 323°
2026-04-29 01:06 29.53626 -98.47911 801 ft 15 kts 314°
2026-04-29 01:06 29.53707 -98.48016 802 ft 17 kts 310°
2026-04-29 01:07 29.53795 -98.48127 805 ft 20 kts 310°
2026-04-29 01:07 29.53877 -98.48233 806 ft 16 kts 313°
2026-04-29 01:07 29.53962 -98.48342 807 ft 17 kts 311°
2026-04-29 01:07 29.54048 -98.48453 807 ft 17 kts 312°
2026-04-29 01:08 29.54113 -98.48535 808 ft 5 kts 347°
2026-04-29 01:08 29.54163 -98.48498 806 ft 12 kts 42°
2026-04-29 01:08 29.54179 -98.48433 804 ft 7 kts 123°
2026-04-29 01:08 29.54119 -98.48355 804 ft 35 kts 132°
2026-04-29 01:09 29.53703 -98.47819 799 ft 142 kts 132°
2026-04-29 01:09 29.52991 -98.46897 1650 ft 162 kts 133°
2026-04-29 01:09 29.52261 -98.45904 2691 ft 182 kts 131°
2026-04-29 01:09 29.51382 -98.44669 3417 ft 213 kts 130°
2026-04-29 01:10 29.50822 -98.43114 4128 ft 224 kts 95°
2026-04-29 01:10 29.51274 -98.41372 4890 ft 240 kts 54°
2026-04-29 01:10 29.52661 -98.40263 5783 ft 258 kts 12°
2026-04-29 01:10 29.54489 -98.39937 6885 ft 280 kts
2026-04-29 01:11 29.56473 -98.39713 7918 ft 292 kts 354°
2026-04-29 01:11 29.58365 -98.40437 8992 ft 294 kts 324°
2026-04-29 01:11 29.59970 -98.41896 10136 ft 296 kts 319°
2026-04-29 01:11 29.61573 -98.43356 11296 ft 302 kts 324°
2026-04-29 01:12 29.63463 -98.44355 12469 ft 313 kts 342°
2026-04-29 01:12 29.65746 -98.44596 13325 ft 338 kts
2026-04-29 01:12 29.68063 -98.43715 13803 ft 372 kts 27°
2026-04-29 01:12 29.70334 -98.42080 14539 ft 390 kts 30°
2026-04-29 01:13 29.72665 -98.40379 15531 ft 398 kts 30°
2026-04-29 01:13 29.75043 -98.38654 16429 ft 407 kts 29°
2026-04-29 01:13 29.77457 -98.36903 16871 ft 411 kts 29°
2026-04-29 01:13 29.79891 -98.35139 17017 ft 412 kts 28°
2026-04-29 01:14 29.82338 -98.33366 17033 ft 411 kts 28°
2026-04-29 01:14 29.84744 -98.31624 17028 ft 408 kts 28°
2026-04-29 01:14 29.87144 -98.29886 17035 ft 408 kts 29°
2026-04-29 01:14 29.89565 -98.28134 17035 ft 407 kts 28°
2026-04-29 01:15 29.91965 -98.26398 16941 ft 401 kts 28°
2026-04-29 01:15 29.94272 -98.24725 16658 ft 385 kts 28°
2026-04-29 01:15 29.96499 -98.23111 16372 ft 372 kts 28°
2026-04-29 01:15 29.98661 -98.21544 16078 ft 359 kts 28°
2026-04-29 01:16 30.00740 -98.20038 15786 ft 349 kts 28°
2026-04-29 01:16 30.02776 -98.18565 15500 ft 339 kts 28°
2026-04-29 01:16 30.04767 -98.17123 15148 ft 334 kts 29°
2026-04-29 01:16 30.06749 -98.15690 14656 ft 333 kts 29°
2026-04-29 01:17 30.08693 -98.14284 14186 ft 331 kts 29°
2026-04-29 01:17 30.10614 -98.12794 13933 ft 325 kts 38°
2026-04-29 01:17 30.12095 -98.10829 13677 ft 331 kts 57°
2026-04-29 01:17 30.13186 -98.08472 13360 ft 331 kts 62°
2026-04-29 01:18 30.14238 -98.06107 13055 ft 329 kts 62°
2026-04-29 01:18 30.16359 -98.01445 12457 ft 326 kts 56°
2026-04-29 01:18 30.17922 -97.99622 12172 ft 318 kts 29°
2026-04-29 01:19 30.19973 -97.98784 11872 ft 310 kts
2026-04-29 01:19 30.22097 -97.98466 11538 ft 310 kts
2026-04-29 01:19 30.24262 -97.98179 11137 ft 309 kts
2026-04-29 01:19 30.26403 -97.97905 10572 ft 313 kts
2026-04-29 01:20 30.28570 -97.97534 9901 ft 320 kts 11°
2026-04-29 01:20 30.30734 -97.96861 9219 ft 325 kts 13°
2026-04-29 01:20 30.32927 -97.96155 8539 ft 327 kts 13°
2026-04-29 01:20 30.35117 -97.95447 7959 ft 325 kts 13°
2026-04-29 01:21 30.37291 -97.94741 7408 ft 321 kts 13°
2026-04-29 01:21 30.39425 -97.94049 6896 ft 317 kts 13°
2026-04-29 01:21 30.41537 -97.93366 6393 ft 312 kts 13°
2026-04-29 01:21 30.43626 -97.92693 5888 ft 308 kts 13°
2026-04-29 01:22 30.45685 -97.92042 5390 ft 304 kts 15°
2026-04-29 01:22 30.47534 -97.90923 4910 ft 302 kts 41°
2026-04-29 01:22 30.48714 -97.88952 4471 ft 294 kts 72°
2026-04-29 01:22 30.48976 -97.86694 4203 ft 279 kts 92°
2026-04-29 01:23 30.48971 -97.84482 3955 ft 269 kts 94°
2026-04-29 01:23 30.48974 -97.82336 3723 ft 259 kts 93°
2026-04-29 01:23 30.48983 -97.80263 3481 ft 251 kts 94°
2026-04-29 01:23 30.49016 -97.78270 3242 ft 244 kts 92°
2026-04-29 01:24 30.49045 -97.76325 3042 ft 237 kts 93°
2026-04-29 01:24 30.49067 -97.74436 3025 ft 230 kts 97°
2026-04-29 01:24 30.48563 -97.72770 3018 ft 217 kts 133°
2026-04-29 01:24 30.47391 -97.71690 3023 ft 212 kts 151°
2026-04-29 01:25 30.46123 -97.70821 3020 ft 211 kts 153°
2026-04-29 01:25 30.44835 -97.69959 3023 ft 213 kts 153°
2026-04-29 01:25 30.43557 -97.69107 3011 ft 212 kts 153°
2026-04-29 01:25 30.42256 -97.68246 3008 ft 212 kts 153°
2026-04-29 01:26 30.40977 -97.67392 3007 ft 211 kts 153°
2026-04-29 01:26 30.39654 -97.66625 3006 ft 210 kts 165°
2026-04-29 01:26 30.38226 -97.66367 3006 ft 207 kts 176°
2026-04-29 01:26 30.36775 -97.66263 3009 ft 209 kts 178°
2026-04-29 01:27 30.35331 -97.66196 3003 ft 207 kts 179°
2026-04-29 01:27 30.33877 -97.66148 2955 ft 209 kts 179°
2026-04-29 01:27 30.32433 -97.66106 2700 ft 199 kts 179°
2026-04-29 01:27 30.31086 -97.66069 2491 ft 186 kts 179°
2026-04-29 01:28 30.29843 -97.66036 2263 ft 167 kts 179°
2026-04-29 01:28 30.28746 -97.66007 2066 ft 152 kts 179°
2026-04-29 01:28 30.27696 -97.65981 1868 ft 149 kts 179°
2026-04-29 01:28 30.26680 -97.65955 1700 ft 138 kts 179°
2026-04-29 01:29 30.25779 -97.65929 1535 ft 114 kts 179°
2026-04-29 01:29 30.25008 -97.65909 1393 ft 110 kts 178°
2026-04-29 01:29 30.24248 -97.65889 1229 ft 109 kts 178°
2026-04-29 01:29 30.23485 -97.65869 1119 ft 109 kts 179°
2026-04-29 01:30 30.22710 -97.65852 991 ft 111 kts 178°
2026-04-29 01:30 30.21927 -97.65823 827 ft 112 kts 177°
2026-04-29 01:30 30.21152 -97.65807 677 ft 112 kts 178°
2026-04-29 01:30 30.20361 -97.65787 534 ft 113 kts 178°
2026-04-29 01:31 30.19635 -97.65769 485 ft 87 kts 179°
2026-04-29 01:31 30.19234 -97.65759 481 ft 32 kts 178°
2026-04-29 01:31 30.19052 -97.65758 481 ft 21 kts 184°
2026-04-29 01:31 30.18921 -97.65777 483 ft 19 kts 197°
2026-04-29 01:32 30.18838 -97.65825 483 ft 9 kts 212°
2026-04-29 01:32 30.18809 -97.65897 483 ft 9 kts 267°
2026-04-29 01:32 30.18807 -97.65990 483 ft 13 kts 269°
2026-04-29 01:32 30.18805 -97.66079 484 ft 10 kts 269°
2026-04-29 01:33 30.18788 -97.66145 485 ft 9 kts 195°
2026-04-29 01:33 30.18722 -97.66159 486 ft 10 kts 255°
2026-04-29 01:33 30.18689 -97.66215 486 ft 11 kts 180°
2026-04-29 01:33 30.18624 -97.66184 486 ft 12 kts 94°
2026-04-29 01:34 30.18584 -97.66138 486 ft 11 kts 186°
2026-04-29 01:34 30.18516 -97.66154 486 ft 7 kts 238°
2026-04-29 01:34 30.18502 -97.66209 486 ft 7 kts 242°
2026-04-29 01:34 30.18520 -97.66218 486 ft 0 kts 50°